• Join FlightAware (Why Join?)
  • Login
  • US Flag GB Flag 
09:53 EST


 

Airport Tracker/Info


-or-


 

Live Flight TrackerFlight Track Log ✈ AAY861 ✈ 28-Feb-2014 ✈ KLEX - KPIE

Flight Track Log - Related Links

Times and Time Zones

All times are in EST time to prevent confusion due to time zone crossing. See the AAY861 flight status page for this flight to view local times or setup timezone preferences in your user account.

Time Position Orientation Groundspeed Altitude Reporting Facility
EST Latitude Longitude Course Direction KTS MPH feet Rate Location/Type
09:45 38.1397 -84.4811 165° South 239 275 6,700  Level Indianapolis Center
09:46 38.1119 -84.3911 111° Southeast 279 321 9,400 1,620 Climbing Indianapolis Center
09:47 38.0231 -84.3692 169° South 318 366 10,100 720 Climbing Indianapolis Center
09:48 37.9183 -84.3508 172° South 367 422 10,900 1,620 Climbing Indianapolis Center
09:49 37.4509 -84.3224 165° South  Level FlightAware Approximate
09:49 37.8072 -84.3292 171° South 394 453 13,500  Level Indianapolis Center
09:50 37.3464 -84.2876 165° South  Level FlightAware Approximate
09:50 37.6797 -84.2986 169° South 400 460 16,700  Level Indianapolis Center
09:51 37.5636 -84.2722 170° South 414 476 18,100 1,500 Climbing Indianapolis Center
09:52 37.4439 -84.2439 169° South 434 499 19,900 1,620 Climbing Indianapolis Center
09:53 37.3192 -84.2156 170° South 448 516 21,500 1,740 Climbing Indianapolis Center
09:54 37.1939 -84.1861 169° South 454 522 23,600 1,740 Climbing Indianapolis Center
09:55 37.0469 -84.1514 169° South 456 525 25,200 1,680 Climbing Indianapolis Center
09:56 36.9211 -84.1233 170° South 462 532 27,100 1,740 Climbing Indianapolis Center
09:57 36.7956 -84.0956 170° South 461 531 28,800 1,440 Climbing Indianapolis Center
09:58 36.6719 -84.0686 170° South 457 526 30,200 1,200 Climbing Indianapolis Center
09:59 36.5519 -84.0397 169° South 446 513 31,300 1,200 Climbing Indianapolis Center
10:00 36.4100 -84.0067 169° South 443 510 32,800 780 Climbing Indianapolis Center
10:01 36.2919 -83.9814 170° South 436 502 33,000 60 Climbing Indianapolis Center
10:02 36.1714 -83.9539 170° South 436 502 33,000  Level Indianapolis Center
10:03 36.0478 -83.9283 171° South 441 507 33,000  Level Atlanta Center
10:04 35.9289 -83.9028 170° South 441 507 33,000  Level Atlanta Center
10:05 35.8078 -83.9158 185° South 434 499 33,000  Level Atlanta Center
10:06 35.6933 -83.9467 192° South 434 499 33,000  Level Atlanta Center
10:07 35.5764 -83.9800 193° South 434 499 33,000  Level Atlanta Center
10:08 35.4594 -84.0056 190° South 428 493 33,000  Level Atlanta Center
10:09 35.3447 -84.0311 190° South 428 493 33,000  Level Atlanta Center
10:10 35.2258 -84.0592 191° South 428 493 33,000  Level Atlanta Center
10:11 35.1092 -84.0894 192° South 428 493 33,000  Level Atlanta Center
10:12 34.9858 -84.1200 191° South 428 493 33,000  Level Atlanta Center
10:13 34.8689 -84.1503 192° South 428 493 33,000  Level Atlanta Center
10:14 34.7522 -84.1753 190° South 428 493 33,000  Level Atlanta Center
10:15 34.6372 -84.1978 189° South 428 493 33,000  Level Atlanta Center
10:16 34.5225 -84.2278 192° South 428 493 33,000  Level Atlanta Center
10:17 34.4097 -84.2528 190° South 428 493 33,000  Level Atlanta Center
10:18 34.2908 -84.2803 191° South 428 493 33,000  Level Atlanta Center
10:19 34.1758 -84.3075 191° South 428 493 33,000  Level Atlanta Center
10:20 34.0672 -84.3347 192° South 433 498 33,000  Level Atlanta Center
10:21 33.9483 -84.3644 192° South 428 493 33,000  Level Atlanta Center
10:22 33.8356 -84.3889 190° South 428 493 33,000  Level Atlanta Center
10:23 33.7186 -84.4158 191° South 433 498 33,000  Level Atlanta Center
10:24 33.5869 -84.4378 188° South 433 498 33,000  Level Atlanta Center
10:25 33.4617 -84.4372 180° South 440 506 33,000  Level Atlanta Center
10:26 33.3386 -84.4317 178° South 440 506 33,000  Level Atlanta Center
10:27 33.2175 -84.4286 179° South 440 506 33,000  Level Atlanta Center
10:28 33.0903 -84.4256 179° South 446 513 33,000  Level Atlanta Center
10:29 32.9650 -84.4275 181° South 446 513 33,000  Level Atlanta Center
10:30 32.8397 -84.4244 179° South 446 513 33,000  Level Atlanta Center
10:31 32.7250 -84.4192 178° South 451 519 33,000  Level Atlanta Center
10:32 32.5997 -84.4161 179° South 451 519 33,000  Level Atlanta Center
10:33 32.4725 -84.4156 180° South 456 525 33,000  Level Atlanta Center
10:34 32.3431 -84.4100 178° South 456 525 33,000  Level Atlanta Center
10:35 32.2156 -84.4094 180° South 456 525 33,000  Level Atlanta Center
10:36 32.0678 -84.4078 179° South 458 527 33,000  Level Jacksonville Center
10:37 31.9531 -84.4008 177° South 473 544 33,000  Level Jacksonville Center
10:38 31.8194 -84.3986 179° South 473 544 33,000  Level Jacksonville Center
10:39 31.6900 -84.3967 179° South 473 544 33,000  Level Jacksonville Center
10:40 31.5481 -84.3944 179° South 479 551 33,000  Level Jacksonville Center
10:41 31.4186 -84.3922 179° South 474 545 33,000  Level Jacksonville Center
10:42 31.2872 -84.3878 178° South 474 545 33,000  Level Jacksonville Center
10:43 31.1597 -84.3856 179° South 474 545 33,000  Level Jacksonville Center
10:44 31.0303 -84.3836 179° South 469 540 33,000  Level Jacksonville Center
10:45 30.9008 -84.3814 179° South 469 540 33,000 -300 Level Jacksonville Center
10:46 30.7714 -84.3794 179° South 464 534 32,500 -780 Descending Jacksonville Center
10:47 30.6442 -84.3775 179° South 464 534 31,500 -780 Descending Jacksonville Center
10:48 30.5169 -84.3564 172° South 464 534 31,000 -300 Descending Jacksonville Center
10:49 30.3947 -84.2750 150° Southeast 471 542 30,900  Descending Jacksonville Center
10:50 30.2744 -84.1914 149° Southeast 487 560 31,000  Climbing Jacksonville Center
10:51 30.1689 -84.1178 149° Southeast 487 560 30,900 -60 Descending Jacksonville Center
10:52 30.0464 -84.0394 151° Southeast 499 574 30,900  Level Jacksonville Center
10:53 29.9239 -83.9639 152° Southeast 499 574 30,900  Level Jacksonville Center
10:54 29.8033 -83.8858 151° Southeast 499 574 31,000  Climbing Jacksonville Center
10:55 29.6661 -83.7983 151° Southeast 499 574 31,000 -300 Level Jacksonville Center
10:56 29.5497 -83.7186 149° Southeast 499 574 30,500 -1,080 Descending Jacksonville Center
10:57 29.4272 -83.6436 152° Southeast 494 568 28,900 -1,620 Descending Jacksonville Center
10:58 29.3086 -83.5689 151° Southeast 494 568 27,300 -1,440 Descending Jacksonville Center
10:59 29.1983 -83.4992 151° Southeast 479 551 26,100 -1,020 Descending Jacksonville Center
11:00 29.0942 -83.4297 150° Southeast 457 526 25,300 -1,260 Descending Jacksonville Center
11:01 28.9922 -83.3650 151° Southeast 440 506 23,600 -2,040 Descending Jacksonville Center
11:02 28.8942 -83.3053 152° Southeast 412 474 21,300 -2,040 Descending Jacksonville Center
11:03 28.8006 -83.2503 153° Southeast 399 459 19,600 -1,800 Descending Jacksonville Center
11:04 28.7108 -83.1886 149° Southeast 383 441 17,700 -1,740 Descending Jacksonville Center
11:05 28.6233 -83.1292 149° Southeast 377 434 16,200 -1,560 Descending Jacksonville Center
11:07 28.5000 -83.0500 151° Southeast 359 413 14,200 -1,440 Descending Tampa TRACON
11:08 28.4167 -83.0000 152° Southeast 353 406 13,000 -1,140 Descending Tampa TRACON
11:09 28.3333 -82.9500 152° Southeast 344 396 11,900 -960 Descending Tampa TRACON
11:10 28.2333 -82.9333 172° South 335 386 11,100 -480 Descending Tampa TRACON
11:11 28.1500 -82.9167 170° South 331 381 11,000 -600 Descending Tampa TRACON
11:12 28.0667 -82.9000 170° South 287 330 9,900 -1,140 Descending Tampa TRACON
11:13 27.9833 -82.8833 170° South 285 328 8,800 -1,560 Descending Tampa TRACON
11:14 27.9000 -82.8667 170° South 279 321 6,800 -2,280 Descending Tampa TRACON
11:15 27.8167 -82.8500 170° South 259 298 4,100 -2,040 Descending Tampa TRACON
11:16 27.7667 -82.8500 180° South 225 259 2,800 -1,200 Descending Tampa TRACON
11:17 27.7333 -82.7833 119° Southeast 185 213 1,700 -600 Descending Tampa TRACON
11:18 27.7500 -82.7333 69° East 185 213 1,600 -60 Descending Tampa TRACON
11:19 27.7833 -82.7167 24° Northeast 176 203 1,600 -180 Level Tampa TRACON
11:20 27.8333 -82.7000 16° North 171 197 1,300 -540 Descending Tampa TRACON
11:21 27.8667 -82.6833 24° Northeast 144 166 600 -720 Descending Tampa TRACON